[[{"header":{"parameterUnit":"m.s-1","parameterCategory":1,"la1":30.2991,"la2":30.254,"lo1":-89.0895,"lo2":-89.0444,"dy":0.0017,"dx":0.0017,"nx":28,"ny":28,"refTime":"2025-09-12T09:00:00:Z","depth":0,"parameterNumber":2,"parameterNumberName":"U-component_of_WINDS"},"data":[0,0,0,0,0,0,0,0,0,0,0,0,0,0,0,0,0,0,0,0,0,0,0,0,0,0,0,0,0,0,0,0,0,0,0,0,0,0,0,0,0,0,0,0,0,0,0,0,0,0,0,0,0,0,0,0,0,0,1.2556,1.2556,0,1.2616,1.2617,1.2617,1.2631,1.2631,1.2631,1.263,1.2688,1.269,1.2691,0,0,0,0,0,0,0,0,0,0,0,0,0,1.2448,1.245,1.2556,1.2557,1.2557,1.2616,1.2617,1.2617,1.2632,1.2631,1.2631,1.263,1.2687,1.2689,1.2692,0,0,0,0,0,0,0,0,0,0,0,0,0,1.25,1.2451,1.2556,1.2572,1.2574,1.2616,1.2617,1.2618,1.2632,1.2631,1.263,1.263,1.2686,1.2689,1.2692,1.2721,0,0,1.2701,1.2702,0,0,0,0,0,0,0,0,1.2497,1.2504,1.2568,1.2571,1.2573,1.2616,1.26,1.2652,1.2632,1.2609,1.263,1.263,1.2664,1.2669,1.2681,1.2724,1.2726,1.2701,1.2703,1.2704,1.2705,0,0,0,0,0,0,0,1.2493,1.2501,1.2579,1.2569,1.2572,1.2574,1.2581,1.261,1.2639,1.2611,1.2613,1.262,1.2665,1.2678,1.2682,1.2727,1.2701,1.2703,1.2705,1.2706,1.2794,1.2795,0,0,0,0,0,0,1.2488,1.2498,1.2578,1.2581,1.2533,1.2576,1.2584,1.2602,1.2639,1.2644,1.262,1.262,1.2674,1.2679,1.2685,1.272,1.2704,1.2706,1.2708,1.2794,1.2794,1.2795,0,0,0,0,0,0,1.2485,1.2495,1.2575,1.254,1.2551,1.2579,1.26,1.2604,1.2617,1.2646,1.265,1.2629,1.2673,1.2681,1.2712,1.2722,1.2708,1.271,1.2793,1.2794,1.2795,1.2791,0,0,0,0,0,0,1.2482,1.2494,1.2507,1.254,1.2552,1.2603,1.26,1.2606,1.2623,1.2623,1.2655,1.2659,1.2674,1.2707,1.2714,1.2726,1.2712,1.2792,1.2793,1.2794,1.279,1.2792,1.2793,0,0,0,0,0,1.2478,1.2503,1.2507,1.2517,1.2569,1.2603,1.261,1.2627,1.2623,1.2635,1.2653,1.2658,1.272,1.271,1.2719,1.2731,1.2791,1.2793,1.2794,1.279,1.2791,1.2793,0,0,0,0,0,0,1.2468,1.2507,1.2513,1.2549,1.2573,1.2606,1.2622,1.2629,1.2653,1.2652,1.2671,1.2678,1.2707,1.2722,1.2711,1.2759,1.2755,1.2758,1.2749,1.2751,1.2752,1.2747,1.2715,0,0,0,0,0,1.2471,1.2497,1.2529,1.2558,1.2569,1.2593,1.2609,1.262,1.2645,1.2654,1.2675,1.2697,1.2721,1.2737,1.2761,1.2792,1.2798,1.2804,1.2806,1.2807,1.2809,1.2825,1.2827,1.28,1.28,1.28,0,0,1.2475,1.25,1.2515,1.2556,1.2576,1.2601,1.2602,1.2628,1.2646,1.2658,1.2689,1.2704,1.273,1.2761,1.2776,1.2774,1.2818,1.2808,1.2809,1.2811,1.2826,1.2829,1.2831,1.2801,1.2801,1.28,0,0,1.2495,1.2518,1.2543,1.2563,1.2593,1.2609,1.2615,1.2646,1.2657,1.2689,1.2697,1.2718,1.276,1.2778,1.2792,1.2817,1.2822,1.2825,1.2831,1.2846,1.2848,1.285,1.2858,1.2861,1.2827,1.2827,1.2827,0,1.2497,1.2536,1.2555,1.2581,1.2598,1.2611,1.2636,1.2653,1.2689,1.2699,1.2698,1.2749,1.2768,1.2802,1.2808,1.282,1.2826,1.2821,1.2847,1.2849,1.2851,1.2858,1.2861,1.2827,1.2827,1.2827,1.2827,0,1.2535,1.2562,1.2579,1.2614,1.2633,1.2658,1.2679,1.2696,1.2704,1.2719,1.275,1.2772,1.28,1.2809,1.2818,1.2844,1.2842,1.2843,1.2839,1.2853,1.286,1.2864,1.2827,1.2827,1.2827,1.2827,0,0,1.2552,1.2597,1.2602,1.2618,1.2651,1.2671,1.2696,1.2724,1.2737,1.2761,1.2781,1.2815,1.2816,1.2832,1.2843,1.2856,1.2872,1.2855,1.2856,1.2857,1.2901,1.2899,1.2902,1.2876,1.2877,1.2877,1.2898,0,1.2575,1.2622,1.2639,1.2676,1.27,1.2711,1.2732,1.2754,1.2768,1.2789,1.2804,1.2828,1.2828,1.2838,1.2852,1.2868,1.2881,1.2866,1.2893,1.2894,1.2885,1.2906,1.2905,1.2924,1.2901,1.2902,1.2902,0,1.2609,1.2634,1.2674,1.2703,1.2714,1.2733,1.2759,1.278,1.2804,1.2813,1.2831,1.284,1.2864,1.2859,1.2891,1.288,1.2892,1.2901,1.2902,1.2905,1.2898,1.2908,1.293,1.2933,1.2907,1.2907,1.2906,0,1.2615,1.2659,1.2688,1.2701,1.2736,1.2749,1.2764,1.2787,1.2802,1.2825,1.2835,1.2859,1.2872,1.289,1.2905,1.29,1.2935,1.2931,1.2942,1.2941,1.2948,1.2948,1.2972,1.2957,1.2957,1.2957,1.2957,0,1.2639,1.2663,1.2691,1.2709,1.2735,1.2753,1.2778,1.2793,1.2813,1.2833,1.2844,1.2861,1.2881,1.29,1.2912,1.2935,1.2941,1.2948,1.2951,1.2947,1.2946,1.2954,1.2953,1.2958,1.2958,1.2957,1.2957,0,1.265,1.2671,1.2703,1.2733,1.2741,1.2759,1.2784,1.2801,1.2815,1.284,1.2846,1.2868,1.2892,1.2908,1.2938,1.2946,1.2971,1.2974,1.2963,1.2965,1.2974,1.2972,1.3003,1.3008,1.2991,1.2991,1.2991,0,1.2664,1.2683,1.2715,1.273,1.2745,1.2768,1.2784,1.2802,1.2817,1.2845,1.2858,1.2882,1.2903,1.2939,1.2957,1.2979,1.2982,1.2991,1.2985,1.298,1.2981,1.2979,1.298,1.2992,1.2992,1.2992,1.2992,0,1.2686,1.2695,1.2718,1.2744,1.2763,1.2784,1.2806,1.2816,1.2838,1.2854,1.2879,1.2895,1.2925,1.2949,1.2972,1.2986,1.2992,1.2994,1.2997,1.2993,1.2986,1.2989,1.2965,1.2993,1.2993,1.2993,1.2993,1.2993,1.2698,1.2714,1.2739,1.2764,1.2783,1.2802,1.2819,1.2835,1.2857,1.2884,1.2893,1.2918,1.2939,1.2972,1.2985,1.3004,1.3003,1.3008,1.301,1.301,1.301,1.2983,1.3008,1.3008,1.3008,1.3008,1.3008,0,1.2719,1.2735,1.2759,1.2788,1.2807,1.2813,1.2836,1.2851,1.2874,1.2894,1.2914,1.2941,1.2963,1.2983,1.3005,1.3016,1.3019,1.3021,1.302,1.3023,1.3009,1.3004,1.3018,1.3018,1.3018,1.3018,1.3018,1.3018,1.2732,1.276,1.2771,1.2807,1.2823,1.2849,1.2861,1.2878,1.2895,1.2925,1.2944,1.2957,1.2976,1.3,1.302,1.3025,1.3032,1.3033,1.3039,1.3025,1.3024,1.3023,1.3018,1.3035,1.3035,1.3051,1.3051,1.3051]},{"header":{"parameterUnit":"m.s-1","parameterCategory":1,"la1":30.2991,"la2":30.254,"lo1":-89.0895,"lo2":-89.0444,"dy":0.0017,"dx":0.0017,"nx":28,"ny":28,"refTime":"2025-09-12T09:00:00:Z","depth":0,"parameterNumber":3,"parameterNumberName":"V-component_of_WINDS"},"data":[0,0,0,0,0,0,0,0,0,0,0,0,0,0,0,0,0,0,0,0,0,0,0,0,0,0,0,0,0,0,0,0,0,0,0,0,0,0,0,0,0,0,0,0,0,0,0,0,0,0,0,0,0,0,0,0,0,0,3.2717,3.2717,0,3.2699,3.2698,3.2698,3.2658,3.2657,3.2656,3.2655,3.2637,3.2637,3.2637,0,0,0,0,0,0,0,0,0,0,0,0,0,3.2716,3.2716,3.2717,3.2717,3.2716,3.2699,3.2698,3.2698,3.2658,3.2657,3.2656,3.2655,3.2637,3.2637,3.2637,0,0,0,0,0,0,0,0,0,0,0,0,0,3.2709,3.2716,3.2717,3.2694,3.2692,3.2699,3.2698,3.2698,3.2658,3.2657,3.2655,3.2654,3.2637,3.2637,3.2637,3.2665,0,0,3.2639,3.2639,0,0,0,0,0,0,0,0,3.271,3.2709,3.2698,3.2696,3.2693,3.2679,3.2691,3.2687,3.2658,3.2671,3.2655,3.2654,3.2652,3.2651,3.265,3.2664,3.2664,3.2639,3.2639,3.2639,3.2639,0,0,0,0,0,0,0,3.271,3.271,3.271,3.2697,3.2695,3.2685,3.2682,3.269,3.2669,3.267,3.2667,3.2665,3.265,3.265,3.265,3.2663,3.2639,3.2639,3.2639,3.264,3.2698,3.2699,0,0,0,0,0,0,3.2714,3.271,3.271,3.2709,3.2698,3.2686,3.2683,3.2685,3.2668,3.2665,3.2666,3.2663,3.265,3.2649,3.2649,3.2679,3.2639,3.264,3.264,3.2697,3.2698,3.27,0,0,0,0,0,0,3.2714,3.2714,3.2711,3.2709,3.2708,3.2687,3.2689,3.2685,3.2685,3.2666,3.2662,3.267,3.2649,3.2648,3.2661,3.2678,3.264,3.264,3.2695,3.2697,3.2699,3.274,0,0,0,0,0,0,3.2714,3.2715,3.2725,3.2709,3.2708,3.2724,3.269,3.2686,3.2685,3.2681,3.2668,3.2665,3.2648,3.2661,3.2662,3.2678,3.2641,3.2693,3.2696,3.2698,3.2737,3.2743,3.2748,0,0,0,0,0,3.2714,3.2737,3.2726,3.2726,3.272,3.2725,3.2724,3.2704,3.2687,3.2697,3.2685,3.2665,3.2676,3.2662,3.2663,3.2679,3.2692,3.2695,3.2698,3.2734,3.2742,3.2748,0,0,0,0,0,0,3.2755,3.2735,3.2722,3.274,3.2735,3.2718,3.273,3.2713,3.2711,3.2708,3.2683,3.2681,3.2697,3.269,3.2675,3.2705,3.2681,3.2684,3.2708,3.2715,3.2721,3.2721,3.2641,0,0,0,0,0,3.2767,3.2772,3.2754,3.2772,3.277,3.2751,3.2752,3.2737,3.273,3.2727,3.2716,3.271,3.2712,3.2713,3.2714,3.2737,3.2732,3.2748,3.2754,3.2758,3.2761,3.2771,3.2777,3.2709,3.2709,3.2709,0,0,3.279,3.278,3.2784,3.278,3.2774,3.2779,3.2749,3.2756,3.2759,3.2728,3.2739,3.2731,3.2723,3.274,3.2747,3.2734,3.2779,3.2762,3.2766,3.2766,3.2774,3.2781,3.2786,3.2711,3.2711,3.271,0,0,3.2835,3.2828,3.2842,3.2836,3.2827,3.2814,3.2817,3.2803,3.2796,3.2807,3.2783,3.2787,3.2792,3.2786,3.2784,3.2827,3.2808,3.2828,3.2857,3.2866,3.2872,3.2876,3.289,3.2895,3.2831,3.2831,3.2831,0,3.2864,3.2872,3.2851,3.2859,3.2858,3.283,3.2843,3.2839,3.2831,3.283,3.2817,3.2821,3.2814,3.2828,3.2839,3.2839,3.2841,3.2828,3.2873,3.2877,3.2881,3.2894,3.2899,3.2833,3.2833,3.2833,3.2833,0,3.2908,3.2913,3.2926,3.2918,3.2918,3.2929,3.291,3.2913,3.2898,3.2887,3.2898,3.2888,3.2886,3.2889,3.2875,3.2901,3.2894,3.2877,3.2852,3.289,3.2902,3.2907,3.2837,3.2836,3.2835,3.2835,0,0,3.2976,3.2957,3.2962,3.2957,3.2946,3.2949,3.2959,3.2957,3.2959,3.2955,3.2961,3.2966,3.295,3.2948,3.2933,3.2942,3.2975,3.2924,3.2923,3.2932,3.3002,3.3013,3.3019,3.2963,3.2964,3.2965,3.3002,0,3.3017,3.3032,3.3013,3.3032,3.3036,3.301,3.3019,3.3012,3.3002,3.3004,3.2993,3.2995,3.2975,3.2973,3.2981,3.2969,3.2988,3.2967,3.2968,3.2968,3.2969,3.3025,3.3038,3.3073,3.3006,3.3007,3.3008,0,3.3065,3.3062,3.3081,3.3068,3.3069,3.3076,3.3072,3.3075,3.3067,3.3059,3.3057,3.3039,3.3048,3.3025,3.3036,3.3021,3.3021,3.3016,3.3016,3.3014,3.2989,3.3023,3.3084,3.3089,3.3015,3.3014,3.3014,0,3.3111,3.3112,3.3123,3.3121,3.3105,3.3111,3.3105,3.3096,3.3096,3.3093,3.3092,3.309,3.3089,3.3088,3.307,3.3056,3.3083,3.3059,3.3075,3.3076,3.308,3.308,3.314,3.3084,3.3084,3.3084,3.3083,0,3.3156,3.3169,3.3143,3.315,3.3163,3.3143,3.3156,3.3147,3.3139,3.3144,3.3122,3.3127,3.3104,3.3106,3.3093,3.3103,3.3103,3.3096,3.3092,3.3097,3.3098,3.3095,3.3092,3.3085,3.3085,3.3084,3.3084,0,3.3209,3.3193,3.3203,3.3187,3.3184,3.3194,3.3181,3.3186,3.3175,3.3181,3.3181,3.3163,3.3164,3.3147,3.3146,3.3137,3.3152,3.3145,3.3155,3.3152,3.3168,3.3166,3.3228,3.3234,3.3175,3.3176,3.3176,0,3.3238,3.3246,3.3232,3.3233,3.3228,3.3231,3.323,3.3211,3.3211,3.3202,3.3209,3.3209,3.3207,3.321,3.3197,3.3195,3.3187,3.3208,3.3186,3.3191,3.3185,3.3184,3.3184,3.3212,3.3213,3.3214,3.3214,0,3.329,3.3282,3.3282,3.3279,3.3279,3.3276,3.3271,3.3274,3.3252,3.3254,3.3255,3.3254,3.3252,3.3251,3.3247,3.3241,3.3224,3.3222,3.3225,3.3229,3.3234,3.323,3.3165,3.322,3.3219,3.3219,3.3219,3.3218,3.3331,3.3337,3.3328,3.3328,3.3323,3.3319,3.3323,3.3312,3.3313,3.3309,3.3298,3.3301,3.3293,3.3285,3.328,3.3282,3.3272,3.3277,3.3278,3.3279,3.3281,3.3235,3.3282,3.3281,3.3281,3.3281,3.3281,0,3.3381,3.3374,3.3375,3.3369,3.3369,3.3354,3.3348,3.3349,3.3352,3.3346,3.3345,3.3346,3.3345,3.3332,3.333,3.3334,3.3326,3.3334,3.3332,3.3331,3.3292,3.3288,3.334,3.334,3.334,3.334,3.334,3.334,3.3407,3.3416,3.3407,3.3413,3.3406,3.3408,3.3406,3.3403,3.3397,3.3399,3.3399,3.339,3.3381,3.3378,3.3377,3.3373,3.3372,3.3383,3.3376,3.334,3.3334,3.3328,3.3325,3.3383,3.3383,3.3415,3.3415,3.3415]}]]